Weather History for KJVL - February, 2014

Change the Weather History Date:

Friday, February 21, 2014

  Actual Average Record
Temperature  
Mean Temperature 25 °F -  
Max Temperature 35 °F 33 °F 48 °F (1992)
Min Temperature 15 °F 19 °F 0 °F (2008)
Degree Days  
Heating Degree Days 40    
Moisture  
Dew Point 16 °F    
Average Humidity 65    
Maximum Humidity 86    
Minimum Humidity 50    
Precipitation  
Precipitation 0.00 in - - ()
Sea Level Pressure  
Sea Level Pressure 29.53 in    
Wind  
Wind Speed 24 mph (WSW)    
Max Wind Speed 37 mph    
Max Gust Speed 46 mph    
Visibility 9 miles    
Events Snow    
Averages and records for this station are not official NWS values.
T = Trace of Precipitation, MM = Missing Value Source: NWS Daily Summary

Daily Weather History Graph

Daily Weather History Graph

Search for Another Location

Airport or City:

Trip Planner

Search our weather history database for the weather conditions in past years. The results will help you decide how hot, cold, wet, or windy it might be!

Date:

Astronomy

Feb. 21, 2014 Rise Set
Actual Time 6:44 AM CST 5:35 PM CST
Civil Twilight 6:15 AM CST 6:04 PM CST
Nautical Twilight 5:42 AM CST 6:37 PM CST
Astronomical Twilight 5:10 AM CST 7:09 PM CST
Moon No Moon Rise 9:59 AM CST (2/21)
Length of Visible Light 11h 48m
Length of Day
10h 51m
Waning Gibbous, 60% of the Moon is Illuminated
Feb 21
Waning Gibbous
Feb 22
Last Quarter
Mar 1
New
Mar 8
First Quarter
Mar 16
Full

Hourly Weather History & Observations

Time (CST) Temp. Windchill Dew Point Humidity Pressure Visibility Wind Dir Wind Speed Gust Speed Precip Events Conditions
12:15 AM 35.6 °F 23.2 °F 30.2 °F 81% 29.24 in 10.0 mi WSW 26.5 mph 39.1 mph N/A   Overcast
12:35 AM 35.6 °F 22.7 °F 30.2 °F 81% 29.23 in 10.0 mi WSW 28.8 mph 39.1 mph N/A   Overcast
12:55 AM 35.6 °F 23.7 °F 28.4 °F 75% 29.21 in 10.0 mi WSW 24.2 mph 42.6 mph N/A   Overcast
1:15 AM 33.8 °F 21.3 °F 28.4 °F 81% 29.23 in 10.0 mi WSW 24.2 mph 32.2 mph N/A   Overcast
1:35 AM 33.8 °F 20.3 °F 28.4 °F 81% 29.24 in 10.0 mi WSW 28.8 mph 39.1 mph N/A   Overcast
1:55 AM 32.0 °F 18.4 °F 26.6 °F 80% 29.25 in 10.0 mi WSW 26.5 mph 41.4 mph N/A   Overcast
2:15 AM 32.0 °F 17.4 °F 26.6 °F 80% 29.28 in 10.0 mi WSW 31.1 mph 38.0 mph N/A   Overcast
2:35 AM 30.2 °F 16.8 °F 23.0 °F 75% 29.29 in 10.0 mi WSW 23.0 mph 35.7 mph N/A   Overcast
2:55 AM 30.2 °F 14.9 °F 23.0 °F 75% 29.30 in 10.0 mi WSW 31.1 mph 44.9 mph N/A   Overcast
3:15 AM 30.2 °F 15.9 °F 23.0 °F 75% 29.31 in 10.0 mi WSW 26.5 mph 34.5 mph N/A   Overcast
3:35 AM 30.2 °F 15.4 °F 23.0 °F 75% 29.32 in 10.0 mi WSW 28.8 mph 43.7 mph N/A   Overcast
3:55 AM 30.2 °F 17.1 °F 23.0 °F 75% 29.33 in 7.0 mi WSW 21.9 mph 29.9 mph N/A   Overcast
4:15 AM 28.4 °F 13.8 °F 21.2 °F 74% 29.36 in 4.0 mi West 25.3 mph 41.4 mph N/A   Haze
4:35 AM 28.4 °F 16.2 °F 21.2 °F 74% 29.37 in 2.5 mi WSW 17.3 mph 31.1 mph N/A Snow Light Snow
5:45 AM 24.8 °F 8.7 °F 17.6 °F 74% 29.41 in 1.8 mi WSW 26.5 mph 34.5 mph N/A Snow Light Snow
6:45 AM 23.0 °F 7.2 °F 17.6 °F 80% 29.43 in 2.0 mi WSW 23.0 mph 31.1 mph N/A Snow Light Snow
7:45 AM 21.2 °F 3.0 °F 15.8 °F 80% 29.46 in 1.5 mi WSW 29.9 mph 36.8 mph N/A Snow Blowing Snow
8:45 AM 21.2 °F 1.9 °F 14.0 °F 74% 29.46 in 4.0 mi WSW 34.5 mph 42.6 mph N/A Snow Blowing Snow
9:45 AM 15.8 °F -6.1 °F 12.2 °F 86% 29.49 in 7.0 mi WSW 36.8 mph 46.0 mph N/A Snow Blowing Snow
10:45 AM 24.8 °F 7.6 °F 12.2 °F 59% 29.52 in 10.0 mi WSW 31.1 mph 42.6 mph N/A   Mostly Cloudy
11:45 AM 26.6 °F 10.3 °F 12.2 °F 55% 29.55 in 10.0 mi West 29.9 mph 44.9 mph N/A   Mostly Cloudy
12:45 PM 28.4 °F 13.3 °F 15.8 °F 59% 29.57 in 10.0 mi West 27.6 mph 40.3 mph N/A   Partly Cloudy
1:45 PM 28.4 °F 12.5 °F 14.0 °F 55% 29.58 in 10.0 mi West 31.1 mph 41.4 mph N/A   Partly Cloudy
2:45 PM 30.2 °F 16.5 °F 14.0 °F 51% 29.61 in 10.0 mi West 24.2 mph 34.5 mph N/A   Partly Cloudy
3:45 PM 28.4 °F 12.7 °F 14.0 °F 55% 29.64 in 10.0 mi WSW 29.9 mph 36.8 mph N/A   Clear
4:45 PM 28.4 °F 14.4 °F 12.2 °F 51% 29.68 in 10.0 mi West 23.0 mph 34.5 mph N/A   Clear
6:45 PM 26.6 °F 12.7 °F 10.4 °F 51% 29.72 in 10.0 mi WSW 20.7 mph 28.8 mph N/A   Clear
7:45 PM 24.8 °F 12.4 °F 10.4 °F 54% 29.75 in 10.0 mi West 15.0 mph 25.3 mph N/A   Clear
8:15 PM 26.6 °F 15.2 °F 10.4 °F 51% 29.76 in 10.0 mi West 13.8 mph 28.8 mph N/A   Clear
8:35 PM 24.8 °F 12.9 °F 10.4 °F 54% 29.77 in 10.0 mi West 13.8 mph 26.5 mph N/A   Clear
8:45 PM 24.8 °F 11.9 °F 10.4 °F 54% 29.77 in 10.0 mi West 16.1 mph 28.8 mph N/A   Clear
8:55 PM 24.8 °F 11.9 °F 10.4 °F 54% 29.77 in 10.0 mi West 16.1 mph 23.0 mph N/A   Clear
9:15 PM 24.8 °F 12.9 °F 8.6 °F 50% 29.77 in 10.0 mi West 13.8 mph 20.7 mph N/A   Clear
9:35 PM 23.0 °F 10.6 °F 8.6 °F 54% 29.78 in 10.0 mi West 13.8 mph 20.7 mph N/A   Clear
10:00 PM 23.0 °F 11.1 °F 8.6 °F 54% 29.78 in 10.0 mi West 12.7 mph 19.6 mph N/A   Clear
10:15 PM 23.0 °F 11.1 °F 8.6 °F 54% 29.78 in 10.0 mi West 12.7 mph - N/A   Clear
10:35 PM 23.0 °F 9.6 °F 8.6 °F 54% 29.78 in 10.0 mi WNW 16.1 mph - N/A   Clear
10:55 PM 23.0 °F 11.1 °F 8.6 °F 54% 29.78 in 10.0 mi West 12.7 mph - N/A   Clear
11:15 PM 21.2 °F 9.5 °F 8.6 °F 58% 29.78 in 10.0 mi West 11.5 mph - N/A   Clear
11:35 PM 21.2 °F 9.5 °F 8.6 °F 58% 29.78 in 10.0 mi West 11.5 mph - N/A   Clear
11:55 PM 21.2 °F 8.9 °F 8.6 °F 58% 29.79 in 10.0 mi West 12.7 mph 17.3 mph N/A   Clear